GW7096 Weather Reports


time (UTC)temp
F
wind
direction
speed
knots
gust
knots
rain 1hr
in
rain 24hr
in
rain mn
in
humidity
%
barometer
mb
20260902043953 69 135 0.0 0.0 0.00 0.00 0.00 88 1015.6
20260902043448 69 135 0.0 0.0 0.00 0.00 0.00 87 1015.7
20260902042943 69 135 0.0 0.9 0.00 0.00 0.00 87 1015.4
20260902042443 69 138 0.0 0.0 0.00 0.00 0.00 86 1015.3
20260902041939 69 138 0.0 0.0 0.00 0.00 0.00 86 1015.3
20260902041438 69 138 0.0 0.0 0.00 0.00 0.00 85 1015.1
20260902040938 70 138 0.0 0.0 0.00 0.00 0.00 85 1014.9
20260902040433 70 137 0.0 0.0 0.00 0.00 0.00 84 1015.0
20260902035932 70 145 0.0 0.9 0.00 0.00 0.00 84 1014.7
20260902035427 70 136 0.0 0.9 0.00 0.00 0.00 84 1014.8
20260902034927 70 136 0.9 0.9 0.00 0.00 0.00 84 1014.7
20260902034422 70 151 0.0 0.0 0.00 0.00 0.00 83 1014.7
20260902033921 70 151 0.0 0.0 0.00 0.00 0.00 82 1014.4
20260902033420 71 151 0.0 0.0 0.00 0.00 0.00 81 1014.5
20260902032919 71 151 0.0 0.0 0.00 0.00 0.00 81 1014.3
20260902032414 71 150 0.0 0.0 0.00 0.00 0.00 80 1014.2
20260902031909 72 146 0.0 0.0 0.00 0.00 0.00 80 1014.1
20260902031405 72 130 0.9 0.9 0.00 0.00 0.00 80 1014.0
20260902030901 72 133 0.0 0.9 0.00 0.00 0.00 80 1014.1
20260902030355 72 132 0.9 0.9 0.00 0.00 0.00 79 1013.9
20260902025854 72 123 1.7 3.5 0.00 0.00 0.00 78 1014.0
20260902025350 73 125 0.9 2.6 0.00 0.00 0.00 78 1014.1
20260902024849 73 121 0.9 2.6 0.00 0.00 0.00 77 1014.1
20260902024345 73 128 0.9 1.7 0.00 0.00 0.00 76 1014.2
20260902023840 73 106 1.7 1.7 0.00 0.00 0.00 75 1013.8
20260902023336 74 109 0.9 2.6 0.00 0.00 0.00 74 1013.9
20260902022835 74 119 1.7 2.6 0.00 0.00 0.00 74 1013.9
20260902022331 75 128 1.7 1.7 0.00 0.00 0.00 73 1013.8
20260902021827 75 128 0.0 0.9 0.00 0.00 0.00 72 1014.0
20260902021327 75 124 0.0 0.0 0.00 0.00 0.00 72 1013.7
20260902020822 76 128 0.0 0.0 0.00 0.00 0.00 70 1013.7
20260902020319 76 133 0.0 0.9 0.00 0.00 0.00 69 1013.8
20260902015814 76 116 2.6 3.5 0.00 0.00 0.00 69 1013.7
20260902015310 77 124 0.0 2.6 0.00 0.00 0.00 66 1013.9
20260902014805 78 137 1.7 2.6 0.00 0.00 0.00 64 1014.0
20260902014302 80 123 0.0 1.7 0.00 0.00 0.00 62 1013.8
20260902013800 80 148 0.0 1.7 0.00 0.00 0.00 62 1013.8
20260902013256 80 127 0.0 0.9 0.00 0.00 0.00 60 1013.6
20260902012751 79 141 0.0 0.0 0.00 0.00 0.00 61 1013.7
20260902012247 79 132 0.0 2.6 0.00 0.00 0.00 62 1013.5
20260902011742 80 131 1.7 2.6 0.00 0.00 0.00 61 1013.7
20260902011242 80 120 1.7 2.6 0.00 0.00 0.00 59 1013.6
20260902010741 80 135 0.9 1.7 0.00 0.00 0.00 60 1013.8
20260902010237 80 94 1.7 3.5 0.00 0.00 0.00 60 1013.9
20260902005736 80 149 1.7 3.5 0.00 0.00 0.00 60 1013.9
20260902005231 80 82 3.5 3.5 0.00 0.00 0.00 59 1013.7
20260902004731 81 129 0.0 3.5 0.00 0.00 0.00 59 1013.6
20260902004226 80 129 0.9 1.7 0.00 0.00 0.00 60 1013.8
20260902003721 81 107 1.7 2.6 0.00 0.00 0.00 60 1013.7
20260902003217 81 111 1.7 1.7 0.00 0.00 0.00 59 1013.7
20260902002712 81 125 0.9 3.5 0.00 0.00 0.00 59 1013.8
20260902002212 82 75 1.7 5.2 0.00 0.00 0.00 57 1013.7
20260902001708 83 78 1.7 2.6 0.00 0.00 0.00 57 1013.6
20260902001207 82 122 1.7 2.6 0.00 0.00 0.00 57 1013.9
20260902000702 83 118 0.9 3.5 0.00 0.00 0.00 58 1013.7
20260902000158 83 110 0.9 1.7 0.00 0.00 0.00 60 1013.7
20260901235657 83 125 0.9 2.6 0.00 0.00 0.00 60 1013.7
20260901235152 83 109 2.6 3.5 0.00 0.00 0.00 55 1013.7
20260901234651 84 99 0.9 0.9 0.00 0.00 0.00 59 1013.9
20260901234146 84 95 1.7 5.2 0.00 0.00 0.00 55 1013.9
20260901233641 84 132 0.0 2.6 0.00 0.00 0.00 57 1013.9
20260901233137 83 110 3.5 5.2 0.00 0.00 0.00 59 1013.9
20260901232632 83 84 0.9 3.5 0.00 0.00 0.00 58 1013.9
20260901232127 83 90 0.0 6.1 0.00 0.00 0.00 58 1014.0
20260901231624 84 79 2.6 5.2 0.00 0.00 0.00 58 1013.9
20260901231120 84 50 2.6 5.2 0.00 0.00 0.00 52 1014.0
20260901230616 84 65 0.0 5.2 0.00 0.00 0.00 52 1014.0
20260901230115 84 150 0.0 2.6 0.00 0.00 0.00 56 1014.0
20260901225610 84 39 0.9 3.5 0.00 0.00 0.00 56 1013.7
20260901225110 84 92 1.7 1.7 0.00 0.00 0.00 57 1013.9
20260901224606 84 125 2.6 3.5 0.00 0.00 0.00 59 1014.1
20260901224102 84 106 0.9 3.5 0.00 0.00 0.00 57 1014.0
20260901223557 85 54 4.3 7.0 0.00 0.00 0.00 57 1014.2
20260901223053 86 92 2.6 3.5 0.00 0.00 0.00 54 1014.3
20260901222549 85 110 0.9 3.5 0.00 0.00 0.00 56 1014.2
20260901222044 86 110 1.7 2.6 0.00 0.00 0.00 55 1014.2
20260901221541 86 113 1.7 1.7 0.00 0.00 0.00 55 1014.1
20260901221036 85 110 0.9 3.5 0.00 0.00 0.00 56 1014.2
20260901220535 85 81 2.6 2.6 0.00 0.00 0.00 54 1014.3
20260901220034 85 24 1.7 2.6 0.00 0.00 0.00 53 1014.2
20260901215532 85 94 2.6 5.2 0.00 0.00 0.00 54 1014.4
20260901215027 85 83 1.7 5.2 0.00 0.00 0.00 52 1014.2
20260901214526 85 92 1.7 5.2 0.00 0.00 0.00 52 1014.0
20260901214025 85 51 1.7 5.2 0.00 0.00 0.00 52 1014.2
20260901213520 85 46 1.7 5.2 0.00 0.00 0.00 53 1014.3
20260901213019 85 124 0.9 3.5 0.00 0.00 0.00 54 1014.3
20260901212514 86 107 1.7 6.1 0.00 0.00 0.00 52 1014.4
20260901212011 85 32 1.7 3.5 0.00 0.00 0.00 53 1014.5
20260901211506 85 120 1.7 6.1 0.00 0.00 0.00 54 1014.3
20260901211002 85 89 1.7 3.5 0.00 0.00 0.00 54 1014.4
20260901210457 86 58 3.5 5.2 0.00 0.00 0.00 54 1014.4
20260901205953 85 119 1.7 2.6 0.00 0.00 0.00 55 1014.4
20260901205448 85 63 1.7 3.5 0.00 0.00 0.00 56 1014.5
20260901204943 85 84 1.7 5.2 0.00 0.00 0.00 56 1014.4
20260901204440 85 104 2.6 5.2 0.00 0.00 0.00 55 1014.5
20260901203939 85 79 1.7 2.6 0.00 0.00 0.00 55 1014.5
20260901203434 85 112 0.9 5.2 0.00 0.00 0.00 56 1014.6
20260901202929 86 111 0.9 6.1 0.00 0.00 0.00 56 1014.6
20260901202429 86 108 0.9 3.5 0.00 0.00 0.00 57 1014.7
20260901201925 86 111 2.6 6.1 0.00 0.00 0.00 57 1014.7
20260901201420 86 109 3.5 6.1 0.00 0.00 0.00 56 1014.4
20260901200919 86 352 2.6 3.5 0.00 0.00 0.00 56 1014.5
20260901200415 86 118 1.7 3.5 0.00 0.00 0.00 56 1014.5
20260901195914 87 105 1.7 6.1 0.00 0.00 0.00 57 1014.8
20260901195413 87 94 2.6 5.2 0.00 0.00 0.00 56 1014.7
20260901194908 86 94 0.9 5.2 0.00 0.00 0.00 58 1014.7
20260901194402 86 84 3.5 5.2 0.00 0.00 0.00 57 1014.8
20260901193859 86 86 1.7 2.6 0.00 0.00 0.00 58 1014.8
20260901193358 86 38 2.6 2.6 0.00 0.00 0.00 59 1014.7
20260901192857 86 89 2.6 3.5 0.00 0.00 0.00 57 1014.8
20260901192353 85 98 1.7 2.6 0.00 0.00 0.00 60 1015.0
20260901191849 85 10 3.5 5.2 0.00 0.00 0.00 58 1015.1
20260901191344 85 137 0.9 1.7 0.00 0.00 0.00 60 1015.1
20260901190841 85 7 1.7 3.5 0.00 0.00 0.00 58 1015.0
20260901190340 85 108 2.6 3.5 0.00 0.00 0.00 53 1015.3
20260901185839 85 73 2.6 3.5 0.00 0.00 0.00 55 1015.1
20260901185338 84 98 0.9 2.6 0.00 0.00 0.00 56 1015.0
20260901184833 84 131 0.0 2.6 0.00 0.00 0.00 56 1015.3
20260901184329 84 114 0.9 2.6 0.00 0.00 0.00 56 1015.4
20260901183824 83 130 0.0 1.7 0.00 0.00 0.00 58 1015.4
20260901183324 82 157 0.0 0.0 0.00 0.00 0.00 58 1015.5
20260901182820 82 126 1.7 2.6 0.00 0.00 0.00 60 1015.7
20260901182319 83 92 0.0 1.7 0.00 0.00 0.00 57 1015.6
20260901181814 82 166 0.0 0.9 0.00 0.00 0.00 59 1015.6
20260901181309 83 85 1.7 1.7 0.00 0.00 0.00 57 1015.5
20260901180803 83 118 1.7 2.6 0.00 0.00 0.00 58 1015.7
20260901180302 82 159 0.0 0.9 0.00 0.00 0.00 62 1015.7
20260901175801 81 146 0.0 1.7 0.00 0.00 0.00 64 1015.8
20260901175256 81 154 0.9 2.6 0.00 0.00 0.00 64 1015.8
20260901174751 81 174 0.9 0.9 0.00 0.00 0.00 66 1015.8
20260901174247 81 127 1.7 2.6 0.00 0.00 0.00 65 1015.8
20260901173742 81 127 0.9 1.7 0.00 0.00 0.00 68 1015.6
20260901173237 79 183 0.9 0.9 0.00 0.00 0.00 68 1015.8
20260901172734 78 133 0.9 0.9 0.00 0.00 0.00 70 1016.0
20260901172232 78 108 2.6 3.5 0.00 0.00 0.00 70 1016.0
20260901171731 78 133 0.9 0.9 0.00 0.00 0.00 72 1015.7
20260901171230 79 74 0.9 2.6 0.00 0.00 0.00 71 1015.6
20260901170729 78 162 0.0 0.9 0.00 0.00 0.00 73 1015.7
20260901170224 77 181 1.7 1.7 0.00 0.00 0.00 74 1015.6
20260901165723 77 154 0.0 1.7 0.00 0.00 0.00 76 1015.6
20260901165218 76 151 0.0 1.7 0.00 0.00 0.00 78 1015.6
20260901164714 76 126 0.0 1.7 0.00 0.00 0.00 78 1015.7
20260901164214 75 134 0.9 1.7 0.00 0.00 0.00 78 1015.5
20260901163710 75 107 0.9 2.6 0.00 0.00 0.00 80 1015.6
20260901163209 75 83 1.7 2.6 0.00 0.00 0.00 81 1015.6
20260901162704 75 76 1.7 1.7 0.00 0.00 0.00 81 1015.5
20260901162203 74 132 0.9 1.7 0.00 0.00 0.00 82 1015.4
20260901161703 74 127 1.7 2.6 0.00 0.00 0.00 83 1015.5
20260901161203 74 156 0.0 0.9 0.00 0.00 0.00 83 1015.3
20260901160659 73 123 0.9 0.9 0.00 0.00 0.00 83 1015.5
20260901160154 73 155 0.0 1.7 0.00 0.00 0.00 85 1015.1
20260901155653 73 148 0.0 2.6 0.00 0.00 0.00 85 1015.1
20260901155148 73 125 1.7 1.7 0.00 0.00 0.00 85 1015.5
20260901154643 73 128 0.0 0.9 0.00 0.00 0.00 85 1015.1
20260901154138 73 149 0.9 0.9 0.00 0.00 0.00 86 1015.1
20260901153634 72 173 0.0 0.0 0.00 0.00 0.00 87 1015.3
20260901153133 72 173 0.0 0.0 0.00 0.00 0.00 88 1015.1
20260901152628 71 174 0.0 0.0 0.00 0.00 0.00 89 1015.1
20260901152126 71 170 0.0 0.0 0.00 0.00 0.00 91 1014.9
20260901151623 70 167 0.0 0.9 0.00 0.00 0.00 92 1014.9
20260901151122 69 149 0.0 0.0 0.00 0.00 0.00 94 1015.1
20260901150621 69 133 0.0 0.0 0.00 0.00 0.00 95 1014.9
20260901150120 69 132 0.0 0.0 0.00 0.00 0.00 95 1015.0
20260901145618 69 131 0.9 0.9 0.00 0.00 0.00 95 1015.1
20260901145117 68 122 1.7 1.7 0.00 0.00 0.00 96 1015.3
20260901144613 68 138 0.0 0.0 0.00 0.00 0.00 98 1015.0
20260901144108 67 138 0.0 0.0 0.00 0.00 0.00 99 1014.8
20260901143604 67 138 0.0 0.0 0.00 0.00 0.00 99 1015.0
20260901143100 67 138 0.0 0.0 0.00 0.00 0.00 99 1015.0
20260901142556 66 138 0.0 0.0 0.00 0.00 0.00 99 1014.9
20260901142055 66 137 0.0 0.0 0.00 0.00 0.00 99 1014.6
20260901141550 65 138 0.0 0.0 0.00 0.00 0.00 99 1014.8
20260901141044 65 137 0.0 0.0 0.00 0.00 0.00 99 1014.6
20260901140543 64 137 0.0 0.0 0.00 0.00 0.00 99 1014.8
20260901140038 64 137 0.0 0.0 0.00 0.00 0.00 99 1014.9
20260901135537 64 137 0.0 0.0 0.00 0.00 0.00 99 1014.5
20260901135032 64 137 0.0 0.0 0.00 0.00 0.00 99 1014.5
20260901134529 64 137 0.0 0.0 0.00 0.00 0.00 99 1014.6
20260901134029 64 137 0.0 0.0 0.00 0.00 0.00 99 1014.6
20260901133528 64 137 0.0 0.0 0.00 0.00 0.00 99 1014.6
20260901133026 64 137 0.0 0.0 0.00 0.00 0.00 99 1014.4
20260901132521 64 137 0.0 0.0 0.00 0.00 0.00 99 1014.4
20260901132021 64 137 0.0 0.0 0.00 0.00 0.00 99 1014.3
20260901131515 64 137 0.0 0.0 0.00 0.00 0.00 99 1014.4
20260901131010 64 137 0.0 0.0 0.00 0.00 0.00 99 1014.4
20260901130505 64 137 0.0 0.0 0.00 0.00 0.00 99 1014.2
20260901130003 64 137 0.0 0.0 0.00 0.00 0.00 99 1014.2
20260901125502 64 137 0.0 0.0 0.00 0.00 0.00 99 1014.4
20260901125002 64 137 0.0 0.0 0.00 0.00 0.00 99 1014.3
20260901124458 64 137 0.0 0.0 0.00 0.00 0.00 99 1014.5
20260901123952 64 137 0.0 0.0 0.00 0.00 0.00 99 1014.4
20260901123447 64 137 0.0 0.0 0.00 0.00 0.00 99 1014.2
20260901122946 64 137 0.0 0.0 0.00 0.00 0.00 99 1014.3
20260901122445 64 137 0.0 0.0 0.00 0.00 0.00 99 1014.3
20260901121944 64 137 0.0 0.0 0.00 0.00 0.00 99 1014.3
20260901121440 64 137 0.0 0.0 0.00 0.00 0.00 99 1014.3
20260901120935 64 137 0.0 0.0 0.00 0.00 0.00 99 1014.2
20260901120435 64 137 0.0 0.0 0.00 0.00 0.00 99 1014.2
20260901115931 64 137 0.0 0.0 0.00 0.00 0.00 99 1014.2
20260901115430 64 137 0.0 0.0 0.00 0.00 0.00 99 1014.2
20260901114928 64 137 0.0 0.0 0.00 0.00 0.00 99 1014.0
20260901114423 64 137 0.0 0.0 0.00 0.00 0.00 99 1014.2
20260901113921 64 137 0.0 0.0 0.00 0.00 0.00 99 1014.1
20260901113421 64 137 0.0 0.0 0.00 0.00 0.00 99 1013.9
20260901112916 64 137 0.0 0.0 0.00 0.00 0.00 99 1014.0
20260901112412 64 137 0.0 0.0 0.00 0.00 0.00 99 1014.1
20260901111912 64 137 0.0 0.0 0.00 0.00 0.00 99 1014.1
20260901111410 64 137 0.0 0.0 0.00 0.00 0.00 99 1013.8
20260901110909 64 137 0.0 0.0 0.00 0.00 0.00 99 1013.9
20260901110405 64 137 0.0 0.0 0.00 0.00 0.00 99 1014.1
20260901105901 64 137 0.0 0.0 0.00 0.00 0.00 99 1014.0
20260901105356 64 137 0.0 0.0 0.00 0.00 0.00 99 1014.1
20260901104852 64 137 0.0 0.0 0.00 0.00 0.00 99 1013.9
20260901104347 65 137 0.0 0.0 0.00 0.00 0.00 99 1014.1
20260901103843 65 137 0.0 0.0 0.00 0.00 0.00 99 1014.2
20260901103342 65 137 0.0 0.0 0.00 0.00 0.00 99 1014.2
20260901102837 65 137 0.0 0.0 0.00 0.00 0.00 99 1014.3
20260901102337 65 137 0.0 0.0 0.00 0.00 0.00 99 1014.5
20260901101833 65 137 0.0 0.0 0.00 0.00 0.00 99 1014.3
20260901101333 65 137 0.0 0.0 0.00 0.00 0.00 99 1014.2
20260901100832 65 137 0.0 0.0 0.00 0.00 0.00 99 1014.3
20260901100327 65 137 0.0 0.0 0.00 0.00 0.00 99 1014.3
20260901095826 65 137 0.0 0.0 0.00 0.00 0.00 99 1014.5
20260901095324 65 137 0.0 0.0 0.00 0.00 0.00 99 1014.2
20260901094818 65 137 0.0 0.0 0.00 0.00 0.00 99 1014.2
20260901094313 65 137 0.0 0.0 0.00 0.00 0.00 99 1014.2
20260901093808 65 137 0.0 0.0 0.00 0.00 0.00 99 1014.4
20260901093307 65 137 0.0 0.0 0.00 0.00 0.00 99 1014.2
20260901092803 65 137 0.0 0.0 0.00 0.00 0.00 99 1014.3
20260901092259 65 137 0.0 0.0 0.00 0.00 0.00 99 1014.3
20260901091754 65 137 0.0 0.0 0.00 0.00 0.00 98 1014.2
20260901091250 66 137 0.0 0.0 0.00 0.00 0.00 98 1014.1
20260901090749 66 137 0.0 0.0 0.00 0.00 0.00 98 1014.0
20260901090245 66 137 0.0 0.0 0.00 0.00 0.00 98 1014.1
20260901085741 66 137 0.0 0.0 0.00 0.00 0.00 98 1014.2
20260901085236 66 137 0.0 0.0 0.00 0.00 0.00 98 1014.3
20260901084732 66 137 0.0 0.0 0.00 0.00 0.00 98 1014.3
20260901084229 66 137 0.0 0.0 0.00 0.00 0.00 97 1014.3
20260901083728 66 137 0.0 0.0 0.00 0.00 0.00 97 1014.1
20260901083228 66 137 0.0 0.0 0.00 0.00 0.00 97 1014.2
20260901082726 66 137 0.0 0.0 0.00 0.00 0.00 97 1014.3
20260901082222 66 137 0.0 0.0 0.00 0.00 0.00 97 1014.3
20260901081718 66 137 0.0 0.0 0.00 0.00 0.00 97 1014.4
20260901081217 66 137 0.0 0.0 0.00 0.00 0.00 96 1014.3
20260901080713 67 137 0.0 0.0 0.00 0.00 0.00 96 1014.3
20260901080211 67 137 0.0 0.0 0.00 0.00 0.00 96 1014.5
20260901075711 67 137 0.0 0.0 0.00 0.00 0.00 96 1014.4
20260901075211 67 137 0.0 0.0 0.00 0.00 0.00 96 1014.3
20260901074706 67 137 0.0 0.0 0.00 0.00 0.00 95 1014.2
20260901074201 68 137 0.0 0.0 0.00 0.00 0.00 95 1014.2
20260901073657 68 137 0.0 0.0 0.00 0.00 0.00 95 1014.5
20260901073153 68 137 0.0 0.0 0.00 0.00 0.00 95 1014.3
20260901072648 68 137 0.0 0.0 0.00 0.00 0.00 95 1014.3
20260901072143 68 137 0.0 0.0 0.00 0.00 0.00 94 1014.4
20260901071643 68 137 0.0 0.0 0.00 0.00 0.00 94 1014.3
20260901071143 68 137 0.0 0.0 0.00 0.00 0.00 94 1014.3
20260901070637 68 138 0.0 0.0 0.00 0.00 0.00 95 1014.4
20260901070132 68 139 0.0 0.0 0.00 0.00 0.00 94 1014.4
20260901065631 68 139 0.0 0.0 0.00 0.00 0.00 94 1014.6
20260901065126 68 139 0.0 0.0 0.00 0.00 0.00 94 1014.5
20260901064623 68 139 0.0 0.0 0.00 0.00 0.00 94 1014.3
20260901064119 69 139 0.0 0.0 0.00 0.00 0.00 93 1014.4
20260901063616 69 139 0.0 0.0 0.00 0.00 0.00 93 1014.4
20260901063112 69 138 0.0 0.0 0.00 0.00 0.00 93 1014.4
20260901062607 69 138 0.0 0.0 0.00 0.00 0.00 92 1014.4
20260901062103 69 138 0.0 0.0 0.00 0.00 0.00 92 1014.4
20260901061559 70 138 0.0 0.0 0.00 0.00 0.00 92 1014.1
20260901061054 70 138 0.0 0.0 0.00 0.00 0.00 92 1014.4
20260901060548 70 138 0.0 0.9 0.00 0.00 0.00 92 1014.2
20260901060044 70 133 0.0 1.7 0.00 0.00 0.00 91 1014.1
20260901055539 70 138 0.0 0.9 0.00 0.00 0.00 91 1014.4
20260901055036 70 115 1.7 1.7 0.00 0.00 0.00 91 1014.4
20260901054532 70 130 0.9 1.7 0.00 0.00 0.00 91 1014.4
20260901054028 70 117 0.0 0.0 0.00 0.00 0.00 91 1014.2
20260901053524 70 120 0.0 0.0 0.00 0.00 0.00 91 1014.3
20260901053020 70 123 0.0 0.0 0.00 0.00 0.00 91 1014.3
20260901052520 70 123 0.0 0.0 0.00 0.00 0.00 90 1014.4
20260901052020 71 123 0.0 0.0 0.00 0.00 0.00 90 1014.3
20260901051515 71 123 0.0 0.0 0.00 0.00 0.00 90 1014.1
20260901051013 71 124 0.0 0.0 0.00 0.00 0.00 90 1013.9
20260901050509 71 124 0.0 0.0 0.00 0.00 0.00 89 1014.1
20260901050004 71 126 0.0 0.0 0.00 0.00 0.00 89 1014.0
20260901045500 71 126 0.0 0.0 0.00 0.00 0.00 88 1013.9
20260901044959 71 131 0.0 0.0 0.00 0.00 0.00 88 1013.9
20260901044455 71 131 0.0 0.0 0.00 0.00 0.00 88 1013.8